sat.trackr.live / text

‹ back to catalog

STARLINK-4568

NORAD 53622 · 2022-104AL

PAYLOAD ACTIVE UNKNOWN

§ Identity

Operator
Country
US
Launch date
2022-08-28
Launch site
AFETR
Launch vehicle
Mass (kg)
RCS (m²)

Purposes: comms

External: N2YO · Heavens-Above · Gunter

§ Orbital elements

Epoch: 2026-05-25T00:26:07.467072Z

Period
95.44 min
Inclination
53.2140°
Eccentricity
0.0001314
Mean motion
15.08834495 rev/d
Perigee alt
538.9 km
Apogee alt
540.7 km
Semi-major
6,917.9 km
B*
7.2204e-5
RAAN
251.0722°
Arg perigee
91.8997°
Mean anomaly
268.2146°
Rev number
20,727

§ Raw data

STARLINK-45681 53622U 22104AL  26145.01814198  .00000861  00000+0  72204-4 0  99902 53622  53.2140 251.0722 0001314  91.8997 268.2146 15.08834495207270

JSON: /api/v1/satellites/53622 · /tle

For live sub-satellite position, see the globe view (requires WebGL).

§ Visibility from observer

Set your observer location to see the next 7 days of passes ≥ 10°. The values pass through the URL so the page stays shareable.

No JS? Fill the form by hand. The geolocation button needs JavaScript.